Time,TemperatureF,DewpointF,PressureIn,WindDirection,WindDirectionDegrees,WindSpeedMPH,WindSpeedGustMPH,Humidity,HourlyPrecipIn,Conditions,Clouds,dailyrainin,SoftwareType,DateUTC
2013-02-22 00:01:00,27.0,17.0,-100.00,WSW,245,14.0,18.0,66,-99.99,,,0.00,,2013-02-22 07:01:00,
2013-02-22 00:11:00,27.0,17.0,-100.00,WSW,250,15.0,21.0,66,-99.99,,,0.00,,2013-02-22 07:11:00,
2013-02-22 00:21:00,27.0,17.0,-100.00,WSW,250,15.0,21.0,66,-99.99,,,0.00,,2013-02-22 07:21:00,
2013-02-22 00:31:00,27.0,17.0,-100.00,WSW,250,15.0,21.0,66,-99.99,,,0.00,,2013-02-22 07:31:00,
2013-02-22 00:42:00,27.0,17.0,-100.00,WSW,250,15.0,21.0,66,-99.99,,,0.00,,2013-02-22 07:42:00,
2013-02-22 00:52:00,27.0,17.0,-100.00,WSW,245,11.0,16.0,66,-99.99,,,0.00,,2013-02-22 07:52:00,
2013-02-22 01:01:00,27.0,17.0,-100.00,WSW,245,11.0,16.0,66,-99.99,,,0.00,,2013-02-22 08:01:00,
2013-02-22 01:11:00,28.0,17.0,-100.00,WSW,250,7.0,9.0,65,-99.99,,,0.00,,2013-02-22 08:11:00,
2013-02-22 01:21:00,28.0,17.0,-100.00,WSW,250,7.0,9.0,65,-99.99,,,0.00,,2013-02-22 08:21:00,
2013-02-22 01:31:00,28.0,17.0,-100.00,WSW,250,7.0,9.0,65,-99.99,,,0.00,,2013-02-22 08:31:00,
2013-02-22 01:41:00,28.0,17.0,-100.00,WSW,250,7.0,9.0,65,-99.99,,,0.00,,2013-02-22 08:41:00,
2013-02-22 01:52:00,28.0,17.0,-100.00,West,270,9.0,16.0,64,-99.99,,,0.00,,2013-02-22 08:52:00,
2013-02-22 02:03:00,28.0,17.0,-100.00,West,270,9.0,16.0,64,-99.99,,,0.00,,2013-02-22 09:03:00,
2013-02-22 02:11:00,28.0,17.0,-100.00,West,265,14.0,20.0,63,-99.99,,,0.00,,2013-02-22 09:11:00,
2013-02-22 02:21:00,28.0,17.0,-100.00,West,265,14.0,20.0,63,-99.99,,,0.00,,2013-02-22 09:21:00,
2013-02-22 02:31:00,28.0,17.0,-100.00,West,265,14.0,20.0,63,-99.99,,,0.00,,2013-02-22 09:31:00,
2013-02-22 02:41:00,28.0,17.0,-100.00,West,265,14.0,20.0,63,-99.99,,,0.00,,2013-02-22 09:41:00,
2013-02-22 03:11:00,28.0,17.0,-100.00,West,270,14.0,21.0,62,-99.99,,,0.00,,2013-02-22 10:11:00,
2013-02-22 03:21:00,28.0,17.0,-100.00,West,270,14.0,21.0,62,-99.99,,,0.00,,2013-02-22 10:21:00,
2013-02-22 03:31:00,28.0,17.0,-100.00,West,270,14.0,21.0,62,-99.99,,,0.00,,2013-02-22 10:31:00,
2013-02-22 03:42:00,28.0,17.0,-100.00,West,270,14.0,21.0,62,-99.99,,,0.00,,2013-02-22 10:42:00,
2013-02-22 03:51:00,28.0,16.0,-100.00,West,270,15.0,24.0,61,-99.99,,,0.00,,2013-02-22 10:51:00,
2013-02-22 04:01:00,28.0,16.0,-100.00,West,270,15.0,24.0,61,-99.99,,,0.00,,2013-02-22 11:01:00,
2013-02-22 04:11:00,28.0,16.0,-100.00,West,260,16.0,26.0,61,-99.99,,,0.00,,2013-02-22 11:11:00,
2013-02-22 04:21:00,28.0,16.0,-100.00,West,260,16.0,26.0,61,-99.99,,,0.00,,2013-02-22 11:21:00,
2013-02-22 04:32:00,28.0,16.0,-100.00,West,260,16.0,26.0,61,-99.99,,,0.00,,2013-02-22 11:32:00,
2013-02-22 04:42:00,28.0,16.0,-100.00,West,260,16.0,26.0,61,-99.99,,,0.00,,2013-02-22 11:42:00,
2013-02-22 04:52:00,27.0,16.0,-100.00,West,260,14.0,21.0,61,-99.99,,,0.00,,2013-02-22 11:52:00,
2013-02-22 05:02:00,27.0,16.0,-100.00,West,260,14.0,21.0,61,-99.99,,,0.00,,2013-02-22 12:02:00,
2013-02-22 05:11:00,27.0,16.0,-100.00,West,265,17.0,25.0,61,-99.99,,,0.00,,2013-02-22 12:11:00,
2013-02-22 05:21:00,27.0,16.0,-100.00,West,265,17.0,25.0,61,-99.99,,,0.00,,2013-02-22 12:21:00,
2013-02-22 05:32:00,27.0,16.0,-100.00,West,265,17.0,25.0,61,-99.99,,,0.00,,2013-02-22 12:32:00,
2013-02-22 05:42:00,27.0,16.0,-100.00,West,265,17.0,25.0,61,-99.99,,,0.00,,2013-02-22 12:42:00,
2013-02-22 05:52:00,27.0,16.0,-100.00,West,265,17.0,22.0,61,-99.99,,,0.00,,2013-02-22 12:52:00,
2013-02-22 06:01:00,27.0,16.0,-100.00,West,265,17.0,22.0,61,-99.99,,,0.00,,2013-02-22 13:01:00,
2013-02-22 06:11:00,27.0,16.0,-100.00,West,270,12.0,21.0,61,-99.99,,,0.00,,2013-02-22 13:11:00,
2013-02-22 06:22:00,27.0,16.0,-100.00,West,270,12.0,21.0,61,-99.99,,,0.00,,2013-02-22 13:22:00,
2013-02-22 06:31:00,27.0,16.0,-100.00,West,270,12.0,21.0,61,-99.99,,,0.00,,2013-02-22 13:31:00,
2013-02-22 06:41:00,27.0,16.0,-100.00,West,270,12.0,21.0,61,-99.99,,,0.00,,2013-02-22 13:41:00,
2013-02-22 06:51:00,27.0,15.0,-100.00,West,275,12.0,17.0,61,-99.99,,,0.00,,2013-02-22 13:51:00,
2013-02-22 07:01:00,27.0,15.0,-100.00,West,275,12.0,17.0,61,-99.99,,,0.00,,2013-02-22 14:01:00,
2013-02-22 07:11:00,26.0,15.0,-100.00,West,275,9.0,16.0,62,-99.99,,,0.00,,2013-02-22 14:11:00,
2013-02-22 07:21:00,26.0,15.0,-100.00,West,275,9.0,16.0,62,-99.99,,,0.00,,2013-02-22 14:21:00,
2013-02-22 07:32:00,26.0,15.0,-100.00,West,275,9.0,16.0,62,-99.99,,,0.00,,2013-02-22 14:32:00,
2013-02-22 07:41:00,26.0,15.0,-100.00,West,275,9.0,16.0,62,-99.99,,,0.00,,2013-02-22 14:41:00,
2013-02-22 07:52:00,26.0,15.0,-100.00,West,275,9.0,17.0,62,-99.99,,,0.00,,2013-02-22 14:52:00,
2013-02-22 08:01:00,26.0,15.0,-100.00,West,275,9.0,17.0,62,-99.99,,,0.00,,2013-02-22 15:01:00,
2013-02-22 08:11:00,26.0,15.0,-100.00,West,270,8.0,16.0,62,-99.99,,,0.00,,2013-02-22 15:11:00,
2013-02-22 08:21:00,26.0,15.0,-100.00,West,270,8.0,16.0,62,-99.99,,,0.00,,2013-02-22 15:21:00,
2013-02-22 08:32:00,26.0,15.0,-100.00,West,270,8.0,16.0,62,-99.99,,,0.00,,2013-02-22 15:32:00,
2013-02-22 08:41:00,26.0,15.0,-100.00,West,270,8.0,16.0,62,-99.99,,,0.00,,2013-02-22 15:41:00,
2013-02-22 08:52:00,28.0,15.0,-100.00,West,270,12.0,18.0,58,-99.99,,,0.00,,2013-02-22 15:52:00,
2013-02-22 09:01:00,28.0,15.0,-100.00,West,270,12.0,18.0,58,-99.99,,,0.00,,2013-02-22 16:01:00,
2013-02-22 09:11:00,29.0,15.0,-100.00,West,275,12.0,22.0,55,-99.99,,,0.00,,2013-02-22 16:11:00,
2013-02-22 09:21:00,29.0,15.0,-100.00,West,275,12.0,22.0,55,-99.99,,,0.00,,2013-02-22 16:21:00,
2013-02-22 09:31:00,29.0,15.0,-100.00,West,275,12.0,22.0,55,-99.99,,,0.00,,2013-02-22 16:31:00,
2013-02-22 09:41:00,29.0,15.0,-100.00,West,275,12.0,22.0,55,-99.99,,,0.00,,2013-02-22 16:41:00,
2013-02-22 09:52:00,32.0,15.0,-100.00,West,270,12.0,23.0,49,-99.99,,,0.00,,2013-02-22 16:52:00,
2013-02-22 10:01:00,32.0,15.0,-100.00,West,270,12.0,23.0,49,-99.99,,,0.00,,2013-02-22 17:01:00,
2013-02-22 10:11:00,34.0,14.0,-100.00,West,275,16.0,22.0,43,-99.99,,,0.00,,2013-02-22 17:11:00,
2013-02-22 10:21:00,34.0,14.0,-100.00,West,275,16.0,22.0,43,-99.99,,,0.00,,2013-02-22 17:21:00,
2013-02-22 10:31:00,34.0,14.0,-100.00,West,275,16.0,22.0,43,-99.99,,,0.00,,2013-02-22 17:31:00,
2013-02-22 10:41:00,34.0,14.0,-100.00,West,275,16.0,22.0,43,-99.99,,,0.00,,2013-02-22 17:41:00,
2013-02-22 10:52:00,36.0,14.0,-100.00,West,270,9.0,22.0,40,-99.99,,,0.00,,2013-02-22 17:52:00,
2013-02-22 11:01:00,36.0,14.0,-100.00,West,270,9.0,22.0,40,-99.99,,,0.00,,2013-02-22 18:01:00,
2013-02-22 11:12:00,38.0,13.0,-100.00,WNW,285,16.0,26.0,35,-99.99,,,0.00,,2013-02-22 18:12:00,
2013-02-22 11:22:00,38.0,13.0,-100.00,WNW,285,16.0,26.0,35,-99.99,,,0.00,,2013-02-22 18:22:00,
2013-02-22 11:32:00,38.0,13.0,-100.00,WNW,285,16.0,26.0,35,-99.99,,,0.00,,2013-02-22 18:32:00,
2013-02-22 11:42:00,38.0,13.0,-100.00,WNW,285,16.0,26.0,35,-99.99,,,0.00,,2013-02-22 18:42:00,
2013-02-22 11:51:00,40.0,12.0,-100.00,West,280,15.0,24.0,32,-99.99,,,0.00,,2013-02-22 18:51:00,
2013-02-22 12:01:00,40.0,12.0,-100.00,West,280,15.0,24.0,32,-99.99,,,0.00,,2013-02-22 19:01:00,
2013-02-22 12:11:00,41.0,12.0,-100.00,West,270,14.0,23.0,30,-99.99,,,0.00,,2013-02-22 19:11:00,
2013-02-22 12:21:00,41.0,12.0,-100.00,West,270,14.0,23.0,30,-99.99,,,0.00,,2013-02-22 19:21:00,
2013-02-22 12:31:00,41.0,12.0,-100.00,West,270,14.0,23.0,30,-99.99,,,0.00,,2013-02-22 19:31:00,
2013-02-22 12:41:00,41.0,12.0,-100.00,West,270,14.0,23.0,30,-99.99,,,0.00,,2013-02-22 19:41:00,
2013-02-22 12:52:00,41.0,11.0,-100.00,SW,235,18.0,27.0,29,-99.99,,,0.00,,2013-02-22 19:52:00,
2013-02-22 13:01:00,41.0,11.0,-100.00,SW,235,18.0,27.0,29,-99.99,,,0.00,,2013-02-22 20:01:00,
2013-02-22 13:11:00,43.0,13.0,-100.00,WSW,255,11.0,24.0,29,-99.99,,,0.00,,2013-02-22 20:11:00,
2013-02-22 13:21:00,43.0,13.0,-100.00,WSW,255,11.0,24.0,29,-99.99,,,0.00,,2013-02-22 20:21:00,
2013-02-22 13:31:00,43.0,13.0,-100.00,WSW,255,11.0,24.0,29,-99.99,,,0.00,,2013-02-22 20:31:00,
2013-02-22 13:41:00,43.0,13.0,-100.00,WSW,255,11.0,24.0,29,-99.99,,,0.00,,2013-02-22 20:41:00,
2013-02-22 13:52:00,43.0,11.0,-100.00,WSW,245,17.0,25.0,27,-99.99,,,0.00,,2013-02-22 20:52:00,
2013-02-22 14:01:00,43.0,11.0,-100.00,WSW,245,17.0,25.0,27,-99.99,,,0.00,,2013-02-22 21:01:00,
2013-02-22 14:11:00,44.0,11.0,-100.00,West,275,11.0,26.0,26,-99.99,,,0.00,,2013-02-22 21:11:00,
2013-02-22 14:21:00,44.0,11.0,-100.00,West,275,11.0,26.0,26,-99.99,,,0.00,,2013-02-22 21:21:00,
2013-02-22 14:31:00,44.0,11.0,-100.00,West,275,11.0,26.0,26,-99.99,,,0.00,,2013-02-22 21:31:00,
2013-02-22 14:41:00,44.0,11.0,-100.00,West,275,11.0,26.0,26,-99.99,,,0.00,,2013-02-22 21:41:00,
2013-02-22 14:52:00,43.0,9.0,-100.00,WSW,250,16.0,26.0,25,-99.99,,,0.00,,2013-02-22 21:52:00,
2013-02-22 15:01:00,43.0,9.0,-100.00,WSW,250,16.0,26.0,25,-99.99,,,0.00,,2013-02-22 22:01:00,
2013-02-22 15:11:00,43.0,9.0,-100.00,WSW,240,16.0,23.0,24,-99.99,,,0.00,,2013-02-22 22:11:00,
2013-02-22 15:21:00,43.0,9.0,-100.00,WSW,240,16.0,23.0,24,-99.99,,,0.00,,2013-02-22 22:21:00,
2013-02-22 15:31:00,43.0,9.0,-100.00,WSW,240,16.0,23.0,24,-99.99,,,0.00,,2013-02-22 22:31:00,
2013-02-22 15:41:00,43.0,9.0,-100.00,WSW,240,16.0,23.0,24,-99.99,,,0.00,,2013-02-22 22:41:00,
2013-02-22 15:51:00,43.0,8.0,-100.00,WSW,240,12.0,19.0,23,-99.99,,,0.00,,2013-02-22 22:51:00,
2013-02-22 16:01:00,43.0,8.0,-100.00,WSW,240,12.0,19.0,23,-99.99,,,0.00,,2013-02-22 23:01:00,
2013-02-22 16:11:00,43.0,7.0,-100.00,WSW,245,12.0,23.0,22,-99.99,,,0.00,,2013-02-22 23:11:00,
2013-02-22 16:21:00,43.0,7.0,-100.00,WSW,245,12.0,23.0,22,-99.99,,,0.00,,2013-02-22 23:21:00,
2013-02-22 16:31:00,43.0,7.0,-100.00,WSW,245,12.0,23.0,22,-99.99,,,0.00,,2013-02-22 23:31:00,
2013-02-22 16:41:00,43.0,7.0,-100.00,WSW,245,12.0,23.0,22,-99.99,,,0.00,,2013-02-22 23:41:00,
2013-02-22 16:52:00,43.0,7.0,-100.00,West,260,12.0,19.0,22,-99.99,,,0.00,,2013-02-22 23:52:00,
2013-02-22 17:01:00,43.0,7.0,-100.00,West,260,12.0,19.0,22,-99.99,,,0.00,,2013-02-23 00:01:00,
2013-02-22 17:11:00,41.0,7.0,-100.00,WSW,245,11.0,20.0,24,-99.99,,,0.00,,2013-02-23 00:11:00,
2013-02-22 17:21:00,41.0,7.0,-100.00,WSW,245,11.0,20.0,24,-99.99,,,0.00,,2013-02-23 00:21:00,
2013-02-22 17:31:00,41.0,7.0,-100.00,WSW,245,11.0,20.0,24,-99.99,,,0.00,,2013-02-23 00:31:00,
2013-02-22 17:41:00,41.0,7.0,-100.00,WSW,245,11.0,20.0,24,-99.99,,,0.00,,2013-02-23 00:41:00,
2013-02-22 17:51:00,40.0,8.0,-100.00,WSW,240,14.0,19.0,26,-99.99,,,0.00,,2013-02-23 00:51:00,
2013-02-22 18:01:00,40.0,8.0,-100.00,WSW,240,14.0,19.0,26,-99.99,,,0.00,,2013-02-23 01:01:00,
2013-02-22 18:11:00,39.0,8.0,-100.00,West,270,5.0,9.0,27,-99.99,,,0.00,,2013-02-23 01:11:00,
2013-02-22 18:21:00,39.0,8.0,-100.00,West,270,5.0,9.0,27,-99.99,,,0.00,,2013-02-23 01:21:00,
2013-02-22 18:31:00,39.0,8.0,-100.00,West,270,5.0,9.0,27,-99.99,,,0.00,,2013-02-23 01:31:00,
2013-02-22 18:41:00,39.0,8.0,-100.00,West,270,5.0,9.0,27,-99.99,,,0.00,,2013-02-23 01:41:00,
2013-02-22 18:51:00,37.0,8.0,-100.00,West,275,6.0,12.0,30,-99.99,,,0.00,,2013-02-23 01:51:00,
2013-02-22 19:01:00,37.0,8.0,-100.00,West,275,6.0,12.0,30,-99.99,,,0.00,,2013-02-23 02:01:00,
2013-02-22 19:11:00,35.0,9.0,-100.00,WSW,250,4.0,8.0,33,-99.99,,,0.00,,2013-02-23 02:11:00,
2013-02-22 19:21:00,35.0,9.0,-100.00,WSW,250,4.0,8.0,33,-99.99,,,0.00,,2013-02-23 02:21:00,
2013-02-22 19:31:00,35.0,9.0,-100.00,WSW,250,4.0,8.0,33,-99.99,,,0.00,,2013-02-23 02:31:00,
2013-02-22 19:41:00,35.0,9.0,-100.00,WSW,250,4.0,8.0,33,-99.99,,,0.00,,2013-02-23 02:41:00,
2013-02-22 19:52:00,34.0,10.0,-100.00,SW,235,7.0,11.0,36,-99.99,,,0.00,,2013-02-23 02:52:00,
2013-02-22 20:01:00,34.0,10.0,-100.00,SW,235,7.0,11.0,36,-99.99,,,0.00,,2013-02-23 03:01:00,
2013-02-22 20:11:00,33.0,10.0,-100.00,SW,230,8.0,10.0,37,-99.99,,,0.00,,2013-02-23 03:11:00,
2013-02-22 20:21:00,33.0,10.0,-100.00,SW,230,8.0,10.0,37,-99.99,,,0.00,,2013-02-23 03:21:00,
2013-02-22 20:31:00,33.0,10.0,-100.00,SW,230,8.0,10.0,37,-99.99,,,0.00,,2013-02-23 03:31:00,
2013-02-22 20:41:00,33.0,10.0,-100.00,SW,230,8.0,10.0,37,-99.99,,,0.00,,2013-02-23 03:41:00,
2013-02-22 20:51:00,32.0,10.0,-100.00,SW,235,6.0,9.0,39,-99.99,,,0.00,,2013-02-23 03:51:00,
2013-02-22 21:01:00,32.0,10.0,-100.00,SW,235,6.0,9.0,39,-99.99,,,0.00,,2013-02-23 04:01:00,
2013-02-22 21:11:00,32.0,10.0,-100.00,SW,225,8.0,10.0,39,-99.99,,,0.00,,2013-02-23 04:11:00,
2013-02-22 21:21:00,32.0,10.0,-100.00,SW,225,8.0,10.0,39,-99.99,,,0.00,,2013-02-23 04:21:00,
2013-02-22 21:31:00,32.0,10.0,-100.00,SW,225,8.0,10.0,39,-99.99,,,0.00,,2013-02-23 04:31:00,
2013-02-22 21:41:00,32.0,10.0,-100.00,SW,225,8.0,10.0,39,-99.99,,,0.00,,2013-02-23 04:41:00,
2013-02-22 21:51:00,31.0,10.0,-100.00,West,270,4.0,6.0,42,-99.99,,,0.00,,2013-02-23 04:51:00,
2013-02-22 22:02:00,31.0,10.0,-100.00,West,270,4.0,6.0,42,-99.99,,,0.00,,2013-02-23 05:02:00,
2013-02-22 22:12:00,32.0,12.0,-100.00,WSW,245,6.0,10.0,43,-99.99,,,0.00,,2013-02-23 05:12:00,
2013-02-22 22:22:00,32.0,12.0,-100.00,WSW,245,6.0,10.0,43,-99.99,,,0.00,,2013-02-23 05:22:00,
2013-02-22 22:32:00,32.0,12.0,-100.00,WSW,245,6.0,10.0,43,-99.99,,,0.00,,2013-02-23 05:32:00,
2013-02-22 22:41:00,32.0,12.0,-100.00,WSW,245,6.0,10.0,43,-99.99,,,0.00,,2013-02-23 05:41:00,
2013-02-22 22:52:00,32.0,11.0,-100.00,WSW,250,8.0,12.0,41,-99.99,,,0.00,,2013-02-23 05:52:00,
2013-02-22 23:01:00,32.0,11.0,-100.00,WSW,250,8.0,12.0,41,-99.99,,,0.00,,2013-02-23 06:01:00,
2013-02-22 23:11:00,32.0,11.0,-100.00,SW,230,7.0,10.0,42,-99.99,,,0.00,,2013-02-23 06:11:00,
2013-02-22 23:22:00,32.0,11.0,-100.00,SW,230,7.0,10.0,42,-99.99,,,0.00,,2013-02-23 06:22:00,
2013-02-22 23:31:00,32.0,11.0,-100.00,SW,230,7.0,10.0,42,-99.99,,,0.00,,2013-02-23 06:31:00,
2013-02-22 23:41:00,32.0,11.0,-100.00,SW,230,7.0,10.0,42,-99.99,,,0.00,,2013-02-23 06:41:00,
2013-02-22 23:51:00,32.0,12.0,-100.00,WSW,245,7.0,9.0,43,-99.99,,,0.00,,2013-02-23 06:51:00,